www.pogodaiklimat.ru

Погода и климат >> Архив погоды >> Россия >> Ростовская область >> Семикаракорск


ПОГОДА в Семикаракорске

  • Прогноз погоды в Семикаракорске
  • Монитор погоды в Семикаракорске

АРХИВ ПОГОДЫ в Семикаракорске

Время (UTC), дата Ветер
(напр.,м/с)
 
Видим.   Явления Облачность Т
(С)
Тd
(С)
f
(%)
Тe
(С)
Тes
(С)
Комфортность P
(гПа)
Po
(гПа)
Тmin
(С)
Tmax
(С)
R
(мм)
R24
(мм)
S
(см)
00 18.03 С 2 4000 м дымка {дождь} 10/10 1000 м
[Sc]
+5.3 +4.7 96 +3 +3 1018.0 1016.4
03 18.03 СВ 2 4000 м дымка 10/10 1000 м
[Sc]
+5.3 +4.6 95 +3 +3 1019.8 1018.1 +5.1 0.7
06 18.03 СВ 3 4000 м дымка 10/10 1000 м
[Sc]
+5.2 +4.4 95 +2 +2 1022.6 1021.0
09 18.03 СВ 3 4000 м дымка 10/10 1000 м
[Sc Ac As]
+7.1 +4.9 86 +4 +4 1024.0 1022.4
12 18.03 В 2 10 км 6/6 1000 м
[Cu hum]
+11.5 +3.2 57 +11 +13 1024.2 1022.6
15 18.03 В 1 10 км 8/6 1500 м
[Sc diur, vesp Ac cast]
+9.8 +3.0 63 +10 +10 1025.0 1023.4 +11.7
18 18.03 В 1 4000 м дымка 3/0
[As trans]
+3.3 +2.0 91 +2 +2 1026.6 1025.0
21 18.03 В 1 4000 м дымка 3/0
[As trans]
+2.1 +1.4 95 0 0 1027.6 1025.9
00 19.03 В 1 4000 м дымка 3/0
[As trans]
+0.6 +0.1 96 -2 -2 1027.6 1025.9
03 19.03 СВ 1 4000 м дымка 3/0
[As trans]
-0.3 -0.6 98 -3 -3 1028.4 1026.7 -0.9
06 19.03 В 2 4000 м дымка 6/4 1500 м
[Sc Ac As]
+3.4 +2.9 97 0 +2 1029.0 1027.3
09 19.03 В 3 4000 м дымка 10/10 1000 м
[Sc]
+4.3 +2.1 86 +1 +1 1029.5 1027.8
12 19.03 В 3 10 км 10/10 1000 м
[Sc]
+4.8 +2.1 83 +1 +1 1028.7 1027.1
15 19.03 В 2 10 км 10/0
[Ac As]
+5.1 +2.2 82 +3 +3 1028.3 1026.6 +5.5
18 19.03 В 1 4000 м дымка 8/0
[Ac cast]
+3.4 +1.3 86 +2 +2 1028.8 1027.1
21 19.03 С 2 4000 м дымка ясно +0.4 -0.1 96 -3 -3 1028.2 1026.5
00 20.03 С 1 4000 м дымка ясно -1.6 -2.0 97 -4 -4 1027.7 1026.1
03 20.03 С 1 4000 м дымка ясно -2.1 -2.3 99 -5 -5 1027.4 1025.7 -3.1
06 20.03 СВ 2 10 км ясно +2.8 -0.5 79 -0 +4 1027.9 1026.2
09 20.03 В 3 10 км ясно +8.6 -2.1 47 +7 +15 1027.1 1025.5
12 20.03 В 3 10 км ясно +12.1 -4.4 31 +11 +16 1025.3 1023.7
15 20.03 СВ 2 10 км ясно +11.6 -2.6 37 +11 +11 1024.6 1023.0 +12.8
18 20.03 СВ 1 10 км ясно +1.8 -1.1 81 0 0 1025.3 1023.7
21 20.03 СВ 1 4000 м ясно -0.5 -2.6 86 -3 -3 1024.9 1023.2
00 21.03 С 1 4000 м дымка ясно -1.3 -2.7 90 -4 -4 1024.5 1022.9
03 21.03 СЗ 2 4000 м ясно -3.1 -3.8 95 -7 -7 1023.9 1022.2 -3.2
06 21.03 штиль 0 10 км ясно +6.3 +1.0 69 +6 +12 1024.0 1022.4 -3.2
09 21.03 ЮЗ 2 10 км 3/1 1500 м
[Cu hum As trans]
+12.1 +2.0 50 +11 +20 1022.7 1021.1
12 21.03 СЗ 6-11
{11}
10 км 10/3 1000 м
[Cu med, cong Ac As]
+12.0 +3.0 54 +10 +10 1021.2 1019.6
15 21.03 СЗ 5
{11}
10 км слаб. дождь 10/8 1000 м
[Sc Ac lent]
+5.4 +2.1 79 +1 +1 1021.9 1020.3 +13.5 0.0
18 21.03 штиль 0 4000 м дымка {дождь} 9/0
[Ac lent Cc]
+3.6 +1.7 87 +3 +3 1022.6 1021.0
21 21.03 Ю 1 4000 м дымка 10/10 1000 м
[Sc]
+4.1 +2.2 87 +3 +3 1022.2 1020.6
00 22.03 З 2 4000 м дымка 10/0
[Ac cast]
+3.3 +1.8 90 0 0 1021.5 1019.9
03 22.03 З 2 4000 м дымка {дождь} 3/0
[Ac lent]
+2.1 +0.8 91 -1 -1 1021.4 1019.8 +2.1 1
06 22.03 СЗ 5 10 км {дождь} 4/0
[Ac und]
+3.7 +0.3 78 -1 +1 1022.3 1020.6 +1.6
09 22.03 З 4 10 км 10/10 1500 м
[Sc]
+5.3 -0.4 67 +2 +2 1021.5 1019.8
12 22.03 З 5 10 км 8/8 1000 м
[Sc]
+6.6 -2.3 53 +3 +4 1019.5 1017.9
15 22.03 ЮЗ 5
{11}
4000 м 10/5 1000 м
[Sc Ac und]
+7.3 -1.2 55 +4 +4 1016.9 1015.3 +7.9
18 22.03 ЮЗ 5
{11}
10 км 10/10 1000 м
[Sc]
+6.4 -0.6 61 +3 +3 1014.4 1012.8
21 22.03 ЮЗ 6-11
{13}
10 км 10/10 1000 м
[Sc]
+5.5 0.0 68 +1 +1 1009.7 1008.1
00 23.03 З 4
{15}
4000 м слаб. дождь 10/10 1000 м
[Sc]
+4.4 +2.0 84 0 0 1009.3 1007.7
03 23.03 З 4
{11}
10 км {дождь} 9/9 1500 м
[Sc]
+2.6 -0.7 79 -2 -2 1009.9 1008.3 +2.6
06 23.03 З 6
{10}
10 км {дождь} 8/8 1000 м
[Sc diur, vesp]
+3.5 -1.1 72 -2 -1 1011.3 1009.6 +2.3
09 23.03 З 7-12
{13}
10 км 8/8 1000 м
[Sc diur, vesp]
+6.3 -4.5 46 +2 +3 1011.0 1009.4
12 23.03 З 4
{13}
10 км 10/10 1000 м
[Cb cap]
+6.4 -3.4 49 +3 +3 1010.9 1009.3
15 23.03 ЮЗ 4
{13}
10 км 9/8 1000 м
[Cb cap Ci fib]
+5.5 -2.7 55 +2 +2 1011.6 1010.0 +7.1
18 23.03 З 4 10 км 10/0
[Ac cast]
+2.9 -1.0 75 -2 -2 1012.7 1011.1
21 23.03 ЮЗ 2 4000 м дымка 10/10 1000 м
[Sc]
+1.4 +0.1 91 -2 -2 1013.0 1011.4
00 24.03 ЮЗ 3 4000 м слаб. дождь 10/10 1000 м
[Sc]
+0.9 +0.3 96 -4 -4 1012.7 1011.1
03 24.03 ЮЗ 2 4000 м 10/0
[]
+0.9 +0.5 97 -3 -3 1013.0 1011.4 +0.6 0.6
06 24.03 З 3 4000 м дымка {дождь} 10/10 1000 м
[Sc]
+2.0 +0.8 92 -2 -2 1014.3 1012.7
09 24.03 З 4 10 км 9/9 1000 м
[Sc Ci fib]
+4.6 -1.0 67 +1 +1 1014.1 1012.5
12 24.03 СЗ 7
{11}
10 км 10/9 1000 м
[Sc Ci fib]
+4.1 -0.4 72 -2 -1 1013.7 1012.1
15 24.03 З 4
{11}
10 км в посл. час дождь 9/8 1000 м
[Sc Ac As Ci fib]
+3.9 -0.1 75 -0 -0 1013.7 1012.0 +5.9 0.4
18 24.03 З 4
{10}
10 км {дождь} 10/0
[Ac und]
+3.4 -0.5 76 -1 -1 1014.6 1013.0
21 24.03 ЮЗ 3 10 км 10/0
[Ac und]
+2.9 -1.1 75 -1 -1 1014.6 1013.0

 

Местоположение метеостанции Семикаракорск (Ростовская область, Россия): широта 47.52 долгота 40.83 высота над уровнем моря 12 м.

В архиве по умолчанию представлена погода в Семикаракорске за последнюю неделю. Архивные данные за месяц целиком и за предыдущие месяцы, начиная с января 2011 года, Вы можете получить, выбрав интересующий диапазон дат из раскрывающегося списка и нажав кнопку "Ввод!".


*Определитесь, кто Вы:
робот инопланетянин человек

Внимание! Время в таблицах - всемирное. Для получения местного времени необходимо прибавить поправку, которая равна 3 ч.

Смотрите также архив погоды в соседних городах и на ближайших метеорологических станциях:

Погода в Константиновске (Ростовская область, Россия) (21 км)
Погода в Шахтах (Ростовская область, Россия) (47 км)
Погода в Аэропорту Платов (Ростовская область, Россия) (68 км)
Погода в Белой Калитве (Ростовская область, Россия) (79 км)
Погода в Ростове-на-Дону (Ростовская область, Россия) (81 км)
Погода в Зерноград (Ростовская область, Россия) (84 км)
Погода в Каменск-Шахтинском (Ростовская область, Россия) (95 км)
Погода в Цимлянске (Ростовская область, Россия) (98 км)
Погода в Гиганте (Ростовская область, Россия) (118 км)
Погода в Морозовске (Ростовская область, Россия) (121 км)

Пояснения к столбцам:

Ветер - указаны скорость ветра в м/с - средняя за 10 мин, порывы в срок и между сроками (в фигурных скобках) и направление, откуда дует ветер: С - северный, СВ - северо-восточный, В - восточный, ЮВ - юго-восточный, Ю - южный, ЮЗ - юго-западный, З - западный, СЗ - северо-западный.
Видимость - горизонтальная дальность видимости в метрах или километрах. При видимости от 1 до 10 км при отсутствии осадков обычно наблюдается дымка, при ухудшении видимости до 1 км и менее - туман. В сухую погоду видимость может ухудшаться дымом, пылью или мглою.
Явления - указаны атмосферные явления, наблюдавшиеся в срок или в последний час перед сроком; фигурными скобками обозначены явления, наблюдавшиеся между сроками (за 1-3 часа до срока); квадратными скобками обозначены град или гололедные отложения с указанием их диаметра в мм.
Облачность - указаны через наклонную черту общая и нижняя облачность в баллах и высота нижней границы облаков в метрах; квадратными скобками обозначены формы облаков: Ci - перистые, Cs - перисто-слоистые, Cc - перисто-кучевые, Ac - высококучевые, As - высокослоистые, Sc - слоисто-кучевые, Ns - слоисто-дождевые, Cu - кучевые, Cb - кучево-дождевые. Подробнее классификацию облаков см. в Атласе облаков (PDF).
T - Температура воздуха - температура, измеренная на высоте 2 м над землей.
Td - Температура точки росы - температура, при понижении до которой содержащийся в воздухе водяной пар достигнет насыщения.
f - Относительная влажность воздуха - влажноcть воздуха, измеренная на высоте 2 м над землей.
Te - Эффективная температура - температура, которую ощущает одетый по сезону человек в тени. Характеристика душности погоды. При расчете учитывается влияние влажности воздуха и скорости ветра на теплоощущения человека.
Tes - Эффективная температура на солнце - температура, которую ощущает человек, с поправкой на солнечный нагрев. Характеристика знойности погоды. Зависит от высоты солнца над горизонтом, облачности и скорости ветра. Ночью, в пасмурную погоду, а также при ветре 12 м/с и более поправка равна нулю.
P - Атмосферное давление - приведенное к уровню моря атмосферное давление.
Po - Атмосферное давление - измеренное на уровне метеостанции атмосферное давление.
Tmin - Минимальная температура - минимум температуры воздуха на высоте 2 м над землей.
Tmax - Максимальная температура - максимум температуры воздуха на высоте 2 м над землей.
R - Количество осадков - Количество выпавших осадков за период времени, мм. При наведении курсора мыши на число - период времени, за который выпало указанное количество осадков.
R24 - Количество осадков - Количество выпавших осадков за 24 часа, мм.
S - Снежный покров - Высота снежного покрова, см. При наведении курсора мыши на число - состояние снежного покрова и степень покрытия местности в баллах.